SCP
0 0 0 0 0 0 0 0 0 0 0 0 0 0 0 0 0 0 0 0 0 0 0 0 0 0 0 0 0 0 0 0 0 0 0 0 0 0 0 0 0 0 0 0
0 0 0 0 0 0 0 0 0 0 0 0 0 0 0 0 0 0 0 0 0 0 0 0 0 0 0 0 0 0 0 0 0 0 0 0 0 0 0 0 0 0 0 0
0 0 0 0 0 0 0 0 0 0 0 0 0 0 0 0 0 0 0 0 0 0 0 0 0 0 0 0 0 0 0 0 0 0 0 0 0 0 0 0 0 0 0 0
0 0 0 0 0 0 0 0 0 0 0 0 0 0 0 0 0 0 0 0 0 0 0 0 0 0 0 0 0 0 0 0 0 0 0 0 0 0 0 0 0 0 0 0
0 0 0 0 0 0 0 0 0 0 0 0 0 0 0 0 0 0 0 0 0 0 0 0 0 0 0 0 0 0 0 0 0 0 0 0 0 0 0 0 0 0 0 0
0 0 0 0 0 0 0 0 0 0 0 0 0 0 0 0 0 0 0 0 0 0 0 0 0 0 0 0 0 0 0 0 0 0 0 0 0 0 0 0 0 0 0 0
0 0 0 0 0 0 0 0 0 0 0 0 0 0 0 0 0 0 0 0 0 0 0 0 0 0 0 0 0 0 0 0 0 0 0 0 0 0 0 0 0 0 0 0
0 0 0 0 0 0 0 0 0 0 0 0 0 0 0 0 0 0 0 0 0 0 0 0 0 0 0 0 0 0 0 0 0 0 0 0 0 0 0 0 0 0 0 0
0 0 0 0 0 0 0 0 0 0 0 0 0 0 0 0 0 0 0 0 0 0 0 0 0 0 0 0 0 0 0 0 0 0 0 0 0 0 0 0 0 0 0 0
-0 -0 -0 -0 -0 0 0 0 0 0 0 0 0 0 0 0 0 0 0 0 0 0 0 0 0 0 0 0 0 0 0 0 0 0 0 0 0 0 0 0 0 0 0 0
-0 -0 -0 -0 0 0 0 0 0 0 0 0 0 0 0 0 0 0 0 0 0 0 0 0 0 0 0 0 0 0 0 0 0 0 0 0 0 0 0 0 0 0 0 0
0 0 -0 -0 -0 0 0 0 0 0 0 0 0 0 0 0 0 0 0 0 0 0 0 0 0 0 0 0 0 0 0 0 0 0 0 0 0 0 0 0 0 0 0 0
0 0 0 0 0 0 0 0 0 0 0 0 0 0 0 0 0 0 0 0 0 0 0 0 0 0 0 0 0 0 0 0 0 0 0 0 0 0 0 0 0 0 0 0
0 0 0 0 0 0 0 0 0 0 0 0 0 0 0 0 0 0 0 0 0 0 0 0 0 0 0 0 0 0 0 0 0 0 0 0 0 0 0 0 0 0 0 0
0 0 0 0 0 0 0 0 0 0 0 0 0 0 0 0 0 0 0 0 0 0 0 0 0 0 0 0 0 0 0 0 0 0 0 0 0 0 0 0 0 0 0 0
0 0 0 0 0 0 0 0 0 0 0 0 0 0 0 0 0 0 0 0 0 0 0 0 0 0 0 0 0 0 0 0 0 0 0 0 0 0 0 0 0 0 0 0
0 0 0 0 0 0 0 0 0 0 0 0 0 0 0 0 0 0 0 0 0 0 0 0 0 0 0 0 0 0 0 0 0 0 0 0 0 0 0 0 0 0 0 0
0 0 0 0 0 0 0 0 0 0 0 0 0 0 0 0 0 0 0 0 0 0 0 0 0 0 0 0 0 0 0 0 0 0 0 0 0 0 0 0 0 0 0 0
0 0 0 0 0 0 0 0 0 0 0 0 0 0 0 0 0 0 0 0 0 0 0 0 0 0 0 0 0 0 0 0 0 0 0 0 0 0 0 0 0 0 0 0
0 0 0 0 0 0 0 0 0 0 0 0 0 0 0 0 0 0 0 0 0 0 0 0 0 0 0 0 0 0 0 0 0 0 0 0 0 0 0 0 0 0 0 0
0 0 0 0 0 0 0 0 0 0 0 0 0 0 0 0 0 0 0 0 0 0 0 0 0 0 0 0 0 0 0 0 0 0 0 0 0 0 0 0 0 0 0 0
0 0 0 0 0 0 0 0 0 0 0 0 0 0 0 0 0 0 0 0 0 0 0 0 0 0 0 0 0 0 0 0 0 0 0 0 0 0 0 0 0 0 0 0
0 0 0 0 0 0 0 0 0 0 0 0 0 0 0 0 0 0 0 0 0 0 0 0 0 0 0 0 0 0 0 0 0 0 0 0 0 0 0 0 0 0 0 0
0 0 0 0 0 0 0 0 0 0 0 0 0 0 0 0 0 0 0 0 0 0 0 0 0 0 0 0 0 0 0 0 0 0 0 0 0 0 0 0 0 0 0 0
0 0 0 0 0 0 0 0 0 0 0 0 0 0 0 0 0 0 0 0 0 0 0 0 0 0 0 0 0 0 0 0 0 0 0 0 0 0 0 0 0 0 0 0
0 0 0 0 0 0 0 0 0 0 0 0 0 0 0 0 0 0 0 0 0 0 0 0 0 0 0 0 0 0 0 0 0 0 0 0 0 0 0 0 0 0 0 0
0 0 0 0 0 0 0 0 0 0 0 0 0 0 0 0 0 0 0 0 0 0 0 0 0 0 0 0 0 0 0 0 0 0 0 0 0 0 0 0 0 0 0 0
Wind_Speed
10 5 9 12 16 19 22 21 18 17 19 18 16 15 14 13 11 9 8 6 6 7 8 9 10 11 11 11 11 11 11 11 10 9 8 7 7 7 6 6 6 6 7 7
11 8 9 9 13 18 21 20 22 21 21 17 15 13 13 13 11 10 9 7 6 7 8 9 10 11 11 11 11 11 11 10 9 8 8 7 7 6 6 6 6 6 8 8
10 8 7 13 17 18 16 16 16 20 19 14 13 12 12 11 10 10 9 7 6 7 8 8 9 10 11 11 10 10 10 9 8 8 7 7 6 6 6 6 6 7 8 9
6 8 13 9 6 14 17 18 18 16 15 14 13 11 10 10 10 9 7 6 5 5 5 6 7 8 8 9 9 9 8 8 7 7 7 6 6 6 6 5 6 7 8 9
6 10 10 7 7 10 13 14 15 18 17 14 7 6 8 6 7 7 6 4 3 3 4 5 6 7 8 8 8 8 7 7 7 7 6 6 6 6 5 5 7 7 8 9
7 9 10 7 7 8 7 10 10 13 14 10 6 6 4 2 2 2 1 1 2 3 4 5 6 7 8 8 7 7 6 6 6 6 6 6 5 5 4 5 7 7 8 9
11 10 9 4 7 11 9 6 5 9 10 9 10 6 1 2 2 2 2 3 3 4 5 5 6 7 7 7 6 5 5 5 5 5 5 4 4 4 4 5 6 8 9 10
12 11 11 8 12 13 7 2 5 6 7 8 8 4 3 3 3 3 4 4 5 5 5 5 6 6 6 5 5 5 5 4 4 4 3 3 3 4 5 6 7 8 9 10
12 11 2 13 12 9 3 5 6 6 6 7 6 6 5 4 4 5 5 5 5 6 6 5 5 5 6 5 5 5 4 4 3 3 3 3 4 4 5 5 6 7 8 8
7 9 7 10 8 7 7 6 5 5 6 7 7 7 7 6 6 5 5 5 5 6 6 5 4 4 4 5 5 4 3 3 2 2 3 3 3 4 5 6 6 7 8 9
9 5 4 8 12 11 8 6 5 5 6 7 7 7 7 7 6 6 5 5 5 5 5 5 5 4 4 4 4 3 2 2 2 2 3 4 5 5 6 7 7 8 8 9
10 10 9 8 9 10 9 9 8 7 6 6 7 7 7 6 6 6 6 6 5 5 5 5 5 4 4 3 3 2 2 2 2 3 3 4 5 6 8 10 13 15 16 15
6 5 6 3 4 7 9 8 7 7 7 7 6 7 7 6 6 6 6 6 6 6 5 5 4 4 3 2 2 2 2 2 3 3 4 5 5 7 8 8 11 14 16 18
5 5 4 5 5 5 5 6 6 5 5 5 6 7 7 7 7 7 6 6 6 6 5 4 4 3 2 2 2 2 3 3 4 4 5 5 6 7 7 9 9 9 10 15
8 6 4 5 5 6 6 7 7 6 6 6 6 7 8 8 8 7 6 6 6 5 4 4 3 2 1 1 2 3 3 3 4 5 5 6 6 7 8 9 10 10 9 10
7 5 5 6 7 7 8 8 8 7 7 7 7 7 7 8 7 7 7 6 6 5 4 3 2 1 1 2 3 3 4 5 6 6 6 6 7 7 8 9 9 10 10 10
10 9 9 9 9 9 8 7 7 8 7 8 8 8 9 9 8 7 5 4 4 3 3 2 2 1 2 3 3 3 4 5 7 6 6 7 7 8 8 9 9 10 10 11
9 9 10 10 10 9 7 6 7 8 7 8 9 9 9 9 8 6 5 4 3 2 2 1 1 2 3 3 4 4 4 5 5 6 7 7 8 8 9 9 11 12 11 11
6 7 7 7 8 8 8 8 7 7 8 9 9 8 7 7 6 5 5 4 3 2 1 1 2 3 4 4 5 5 5 6 7 7 7 10 10 9 9 10 11 11 11 11
7 8 9 9 8 8 9 8 9 8 8 9 9 8 7 6 5 5 3 2 1 1 1 2 3 4 4 5 6 5 6 7 8 8 8 8 9 10 10 10 11 11 11 11
10 10 11 10 10 9 9 9 9 9 8 8 8 8 6 5 4 3 2 1 0 0 2 4 4 4 4 6 7 6 6 7 8 8 8 9 9 10 10 11 11 11 11 11
10 10 11 11 11 10 8 8 9 9 8 7 7 7 6 4 3 2 1 1 1 3 3 3 4 5 8 9 6 6 7 8 8 8 8 9 10 10 11 11 11 11 11 12
10 10 11 11 11 11 10 8 8 8 7 7 6 5 4 2 1 1 0 0 2 4 5 4 6 10 12 8 6 7 8 9 9 9 9 10 10 11 11 12 11 11 12 12
11 11 11 11 11 11 10 8 7 6 6 5 4 3 3 2 1 0 1 3 5 6 5 6 10 11 11 6 6 7 8 8 9 9 10 10 10 11 11 11 12 12 12 14
11 11 10 10 9 8 8 8 7 6 5 4 4 3 1 1 0 1 2 3 5 7 5 7 10 11 8 6 7 8 8 9 10 10 10 10 11 11 11 12 12 12 12 13
9 8 7 7 6 6 5 5 4 4 3 3 2 1 1 1 1 2 2 4 6 7 6 5 6 8 7 7 8 9 9 10 11 10 11 11 12 12 12 12 15 13 13 13
9 8 7 7 6 5 4 4 4 3 2 2 1 1 1 2 2 3 4 4 5 5 6 6 6 7 7 8 9 9 9 10 10 10 11 11 11 11 12 14 13 12 13 13
Wind_Direction
233 197 182 203 207 208 217 230 243 252 255 260 264 271 277 282 285 286 278 255 231 219 210 202 199 197 195 193 188 185 187 190 192 189 187 187 190 195 200 209 220 230 240 246
212 202 204 221 221 216 223 233 243 255 263 265 270 272 272 273 276 274 272 262 239 221 211 204 199 195 191 190 185 184 188 190 185 184 184 189 193 197 204 217 227 236 244 251
209 189 200 236 225 219 221 225 233 244 253 263 263 262 264 271 272 268 270 266 245 224 213 206 199 193 190 185 178 182 186 185 183 185 187 192 193 201 213 225 235 244 250 255
178 175 223 236 207 218 226 234 231 242 256 260 263 272 275 270 266 265 266 260 247 225 211 202 190 183 179 175 174 178 182 183 182 185 189 190 197 212 224 233 241 250 256 261
186 215 241 245 208 198 210 239 232 236 247 255 262 269 260 247 246 255 267 264 250 213 188 173 169 167 165 167 169 174 180 182 181 183 187 192 205 220 230 239 249 256 262 265
190 213 229 228 177 175 189 246 229 220 233 236 206 239 253 170 201 229 229 191 159 143 143 147 150 153 158 161 167 175 178 178 178 184 191 201 213 226 237 245 256 264 265 267
207 223 243 211 142 156 200 239 177 199 214 207 207 231 143 137 139 137 127 122 128 128 126 132 140 147 152 156 167 165 160 164 174 185 196 207 220 233 244 254 262 266 271 272
206 217 229 162 159 192 218 130 170 191 202 203 210 206 185 174 158 145 135 129 129 124 117 122 138 147 147 150 146 142 149 159 171 185 191 210 229 246 254 261 268 273 276 278
200 216 203 168 193 208 189 190 195 196 197 189 191 196 187 180 169 155 146 137 132 128 122 121 136 147 145 139 137 143 150 163 177 194 211 227 244 256 264 265 268 275 278 280
210 228 216 206 219 221 215 218 206 196 186 184 190 185 178 173 166 158 149 144 139 137 134 130 131 132 132 133 140 148 161 177 196 220 240 248 252 256 262 265 270 274 278 282
219 226 221 226 222 221 215 217 211 201 194 192 185 182 177 171 168 160 151 148 149 148 141 136 133 128 128 137 146 159 179 204 230 248 260 266 263 261 264 264 268 274 278 281
215 205 201 211 210 205 204 211 206 194 188 187 187 180 169 165 159 155 152 148 146 144 141 138 137 133 135 145 162 178 206 238 256 265 270 273 279 279 258 260 273 273 275 278
220 200 204 194 190 193 201 203 194 191 184 176 175 168 159 152 150 148 149 152 152 147 144 142 143 141 144 155 178 209 243 266 274 273 276 280 283 285 289 280 269 272 275 279
192 159 183 200 195 181 172 159 151 150 157 160 156 150 146 142 145 151 153 149 144 141 142 144 146 147 147 164 199 238 260 266 271 274 278 279 280 283 286 290 293 288 282 282
206 206 193 155 141 142 143 146 148 150 145 141 144 147 148 148 150 147 140 137 137 139 142 147 152 154 154 193 230 253 264 270 275 279 279 279 281 282 283 284 286 290 292 288
181 174 168 169 170 164 162 166 166 164 158 152 148 146 142 137 133 132 135 142 146 150 154 162 176 178 194 232 254 265 267 271 280 283 283 282 281 282 283 284 286 287 289 293
164 179 186 188 188 183 181 178 169 161 156 153 148 139 134 131 129 130 133 137 138 146 165 182 197 218 239 255 271 277 279 280 282 282 279 280 281 281 282 283 285 286 287 289
196 191 188 184 179 174 166 156 149 148 147 144 140 138 139 141 141 140 138 135 134 143 173 189 224 262 267 275 281 280 279 280 281 282 282 281 282 282 282 283 284 285 287 290
170 163 160 157 156 153 148 143 139 135 134 138 136 135 134 133 133 136 140 148 162 184 198 227 278 278 279 283 288 280 279 282 283 282 283 284 285 282 282 283 284 286 288 289
135 133 129 125 124 130 132 131 128 127 130 131 128 127 127 128 133 137 143 164 213 239 257 277 282 280 284 285 289 282 282 283 285 286 286 285 285 286 286 286 286 287 287 287
129 126 124 122 117 115 122 128 127 125 126 129 129 130 130 131 135 141 153 180 196 275 287 288 288 288 290 291 291 286 285 285 285 285 286 286 286 286 286 286 286 285 285 285
123 123 122 121 118 113 111 114 117 118 118 117 116 121 125 129 133 138 186 234 275 305 301 290 288 291 298 300 292 288 287 286 285 284 284 284 285 285 285 286 285 285 284 284
117 118 118 117 115 111 104 102 106 111 114 117 121 127 129 133 143 166 244 285 303 307 302 289 296 301 306 304 293 290 288 286 285 285 285 285 284 284 285 286 285 285 285 285
113 111 110 111 111 108 102 97 94 95 99 101 103 109 116 114 78 327 293 301 306 306 297 296 302 306 310 301 292 289 287 286 286 286 286 285 284 284 284 284 284 284 284 285
110 110 112 114 109 105 107 107 102 100 98 96 93 85 75 57 316 311 308 301 305 307 300 300 304 307 305 293 290 288 287 285 285 287 286 286 286 285 284 284 284 284 284 283
109 106 103 98 101 108 113 113 109 104 101 97 83 65 41 13 332 309 305 304 303 303 302 298 298 299 294 292 290 290 289 290 290 287 285 286 285 285 284 284 285 284 283 282
100 99 99 94 91 94 99 102 104 102 95 93 66 13 350 334 321 315 309 304 302 299 296 295 294 294 294 293 292 291 289 288 287 286 286 285 285 284 285 285 284 284 283 282